Regional Weather Roundup
Issued by NWS Northern Indiana

Home | Current Version | Previous Version | Text Only | Print | Product List | Glossary On
Versions: 1 2 3 4 5 6 7 8 9 10 11 12 13 14 15 16 17 18 19 20 21 22 23 24 25 26 27 28 29 30 31 32 33 34 35 36 37 38 39 40 41 42 43 44 45 46 47 48 49 50
000
ASUS43 KIWX 210910
RWRIWX

KIWX WEATHER ROUNDUP
NATIONAL WEATHER SERVICE NORTHERN INDIANA
500 AM EDT TUE OCT 21 2014

NOTE: "FAIR" INDICATES FEW OR NO CLOUDS BELOW 12,000 FEET WITH NO
SIGNIFICANT WEATHER AND/OR OBSTRUCTIONS TO VISIBILITY.

* THESE STATIONS ARE NOT UNDER NWS QUALITY CONTROL. THEY ALSO MAY NOT
  REPORT WEATHER SUCH AS PRECIPITATION OR FOG.

INZ001>027-211000-
NORTHERN INDIANA

CITY           SKY/WX    TMP DP  RH WIND       PRES   REMARKS
GARY*          RAIN      53  47  81 N15G21    30.02R
VALPARAISO     LGT RAIN  49  46  90 N6        30.01R
MICHIGAN CITY* RAIN      48  43  81 N7        30.01R
LAPORTE*       DRIZZLE   50  48  92 N12       30.00R
KNOX*          CLOUDY    48  44  85 CALM      29.99R
SOUTH BEND     LGT RAIN  48  45  89 N7        29.99R
GOSHEN         CLOUDY    48  42  80 NW10      29.97R
MONTICELLO*    CLOUDY    48  46  92 NW3       29.99R
LOGANSPORT*    CLOUDY    48  43  81 NW3       29.99R
ROCHESTER*     CLOUDY    50  46  87 NW5       29.98S
WARSAW*        CLOUDY    46  43  87 NW7       29.97R
ANGOLA*        CLOUDY    46  43  87 NW7       29.94S
FORT WAYNE     CLOUDY    48  41  76 NW8       29.96R
HUNTINGTON*    CLOUDY    48  43  83 NW6       29.96R
PERU/GRISSOM   CLOUDY    49  49 100 N8        29.98R
MARION*        CLOUDY    49  44  83 NW7       29.97S

$$
INZ028>050-211000-
CENTRAL INDIANA

CITY           SKY/WX    TMP DP  RH WIND       PRES   REMARKS
LAFAYETTE      MOCLDY    43  42  97 NW6       30.00R FOG
KOKOMO*        CLOUDY    48  45  87 N7        29.98R
MUNCIE*        CLOUDY    49  46  90 NW7       29.96R
INDIANAPOLIS   PTCLDY    46  44  93 NW7       29.99R

$$
MIZ043>046-050>051-056>058-064>065-071>073-077>080-211000-
SOUTHWEST LOWER MICHIGAN

CITY           SKY/WX    TMP DP  RH WIND       PRES   REMARKS
BATTLE CREEK   CLOUDY    47  42  83 N8        29.96R
BENTON HARBOR  CLOUDY    49  41  74 VRB6      29.99R
COLDWATER*     RAIN      47  44  90 NW7       29.94S
HILLSDALE*     CLOUDY    47  45  93 N6        29.92S
HOLLAND        CLOUDY    49  42  77 NW6       29.99R
GRAND RAPIDS   CLOUDY    47  42  83 NW9       29.97R
KALAMAZOO      LGT RAIN  47  42  83 N9        29.96S
STURGIS*       CLOUDY    46  43  87 NW7       29.95S
THREE RIVERS*  CLOUDY    48  42  81 NW7       29.97R

$$
OHZ001>008-015>018-024>025-211000-
NORTHWEST OHIO

CITY           SKY/WX    TMP DP  RH WIND       PRES   REMARKS
WAUSEON*       DRIZZLE   48  46  93 VRB7      29.92R
DEFIANCE       CLOUDY    49  43  80 VRB3      29.93S
FINDLAY        CLOUDY    50  44  80 NW7       29.90S
TOLEDO EXPRESS CLOUDY    48  43  82 NW6       29.91R
TOLEDO METCALF CLOUDY    50  43  77 N9        29.91S
LIMA           CLOUDY    49  44  83 NW9       29.91S

$$
AND FOR LAKE MICHIGAN COASTAL AND OPEN LAKE BUOY OBSERVATIONS

STATION/POSITION TEMP    WIND        PRES    VSBY  WAVE
                 AIR SEA DIR/SP/G                  HT/PER
                 (F)     (DEG/KT/KT) (MB)    (MI)  (FT/S)
CALUMET HARBOR    52     330/ 10/ 14 1015.2R
MICHIGAN CITY     50     350/ 22/ 27   N/A
SAINT JOSEPH      52                 1016.3S
SOUTH LAKE BUOY   49 54  360/ 19/ 21 1016.4R         5/ 6

$$
&&


USA.gov is the U.S. government's official web portal to all federal, state and local government web resources and services.